Weather History for Fort Belvoir, VA

Change the Weather History Date:

Sunday, February 10, 2013

  Actual Average Record
Temperature  
Mean Temperature 31 °F -  
Max Temperature 44 °F 47 °F 64 °F (2000)
Min Temperature 18 °F 28 °F 17 °F (2011)
Degree Days  
Heating Degree Days 34    
Moisture  
Dew Point 19 °F    
Average Humidity 60    
Maximum Humidity 89    
Minimum Humidity 37    
Precipitation  
Precipitation 0.00 in - - ()
Sea Level Pressure  
Sea Level Pressure 30.41 in    
Wind  
Wind Speed 2 mph (SE)    
Max Wind Speed 9 mph    
Max Gust Speed -    
Visibility 10 miles    
Events      
Averages and records for this station are not official NWS values.
T = Trace of Precipitation, MM = Missing Value Source: NWS Daily Summary

Daily Weather History Graph

Daily Weather History Graph

Search for Another Location

Airport:

Trip Planner

Search our weather history database for the weather conditions in past years. The results will help you decide how hot, cold, wet, or windy it might be!

Date:

Astronomy

Feb. 10, 2013 Rise Set
Actual Time 7:05 AM EST 5:41 PM EST
Civil Twilight 6:37 AM EST 6:08 PM EST
Nautical Twilight 6:06 AM EST 6:39 PM EST
Astronomical Twilight 5:35 AM EST 7:10 PM EST
Moon 6:54 AM EST (2/10) 6:28 PM EST (2/10)
Length of Visible Light 11h 30m
Length of Day
10h 35m
New Moon, 0% of the Moon is Illuminated
Feb 10
New Moon
Feb 17
First Quarter
Feb 25
Full
Mar 4
Last Quarter
Mar 11
New

Hourly Weather History & Observations

Time (EST) Temp. Windchill Dew Point Humidity Pressure Visibility Wind Dir Wind Speed Gust Speed Precip Events Conditions
12:55 AM 25.0 °F - 16.5 °F 70% 30.42 in 10.0 mi Calm Calm - N/A   Clear
1:55 AM 23.0 °F - 17.2 °F 79% 30.43 in 10.0 mi Calm Calm - N/A   Clear
2:55 AM 21.4 °F - 17.2 °F 84% 30.43 in 10.0 mi Calm Calm - N/A   Clear
3:55 AM 21.2 °F - 17.4 °F 85% 30.45 in 10.0 mi Calm Calm - N/A   Clear
4:55 AM 19.4 °F - 16.2 °F 87% 30.45 in 10.0 mi Calm Calm - N/A   Clear
5:55 AM 20.1 °F - 16.5 °F 86% 30.47 in 10.0 mi Calm Calm - N/A   Clear
6:55 AM 18.5 °F - 15.8 °F 89% 30.49 in 10.0 mi Calm Calm - N/A   Clear
7:55 AM 21.9 °F - 18.1 °F 85% 30.50 in 10.0 mi Calm Calm - N/A   Clear
8:55 AM 29.3 °F - 21.9 °F 74% 30.51 in 10.0 mi Calm Calm - N/A   Clear
9:55 AM 33.6 °F 29.4 °F 17.6 °F 52% 30.51 in 10.0 mi South 4.6 mph - N/A   Clear
10:55 AM 36.7 °F 32.9 °F 17.8 °F 46% 30.51 in 10.0 mi SE 4.6 mph - N/A   Clear
11:55 AM 38.7 °F 34.3 °F 17.2 °F 42% 30.47 in 10.0 mi ESE 5.8 mph - N/A   Partly Cloudy
12:55 PM 40.8 °F 36.2 °F 17.6 °F 39% 30.45 in 10.0 mi South 6.9 mph - N/A   Clear
1:55 PM 42.1 °F 37.1 °F 18.9 °F 39% 30.41 in 10.0 mi ESE 8.1 mph - N/A   Mostly Cloudy
2:55 PM 43.7 °F 41.1 °F 20.5 °F 40% 30.39 in 10.0 mi Variable 4.6 mph - N/A   Clear
3:55 PM 44.4 °F 40.0 °F 19.6 °F 37% 30.36 in 10.0 mi ESE 8.1 mph - N/A   Mostly Cloudy
4:55 PM 41.5 °F 37.1 °F 21.0 °F 44% 30.37 in 10.0 mi SE 6.9 mph - N/A   Overcast
5:55 PM 39.9 °F 36.7 °F 20.7 °F 46% 30.35 in 10.0 mi ESE 4.6 mph - N/A   Overcast
6:55 PM 40.1 °F 36.9 °F 19.0 °F 43% 30.35 in 10.0 mi ESE 4.6 mph - N/A   Overcast
7:55 PM 40.1 °F 35.3 °F 18.5 °F 42% 30.34 in 10.0 mi ESE 6.9 mph - N/A   Overcast
8:55 PM 39.2 °F 35.0 °F 21.9 °F 50% 30.35 in 10.0 mi SSE 5.8 mph - N/A   Overcast
9:55 PM 38.8 °F 32.6 °F 23.0 °F 53% 30.31 in 10.0 mi SE 9.2 mph - N/A   Scattered Clouds
10:55 PM 39.2 °F 35.9 °F 25.0 °F 57% 30.30 in 10.0 mi SSE 4.6 mph - N/A   Mostly Cloudy
11:55 PM 39.7 °F 33.7 °F 29.3 °F 66% 30.27 in 10.0 mi SSE 9.2 mph - N/A   Scattered Clouds